CW2234 Weather Reports


Display with metric or nautical units.
time (UTC)temp
F
wind
direction
speed
MPH
gust
MPH
rain 1hr
in
rain 24hr
in
rain mn
in
humidity
%
barometer
mb
20260903093106 67 0 0.0 2.0 0.00 0.00 0.00 89 1014.1
20260903091602 67 0 0.0 2.0 0.00 0.00 0.00 88 1014.1
20260903090058 67 0 0.0 1.0 0.00 0.00 0.00 88 1014.3
20260903084553 68 0 0.0 0.0 0.00 0.00 0.00 88 1014.3
20260903083105 68 0 0.0 2.0 0.00 0.00 0.00 88 1014.4
20260903081601 68 0 1.0 4.0 0.00 0.00 0.00 88 1014.4
20260903074552 68 0 0.0 3.0 0.00 0.00 0.00 87 1014.6
20260903073106 68 147 0.0 5.0 0.00 0.00 0.00 87 1014.6
20260903071613 68 0 1.0 4.0 0.00 0.00 0.00 87 1014.5
20260903064603 69 0 0.0 3.0 0.00 0.00 0.00 86 1014.4
20260903063103 69 153 0.0 3.0 0.00 0.00 0.00 85 1014.3
20260903061606 69 0 0.0 7.0 0.00 0.00 0.00 84 1014.3
20260903060101 69 0 0.0 3.0 0.00 0.00 0.00 82 1014.2
20260903054554 70 140 1.0 4.0 0.00 0.00 0.00 82 1014.1
20260903053102 70 119 1.0 8.0 0.00 0.00 0.00 81 1014.1
20260903051614 70 111 1.0 7.0 0.00 0.00 0.00 81 1014.1
20260903050115 71 115 1.0 6.0 0.00 0.00 0.00 80 1014.1
20260903044602 71 139 1.0 8.0 0.00 0.00 0.00 79 1014.1
20260903043204 71 121 1.0 6.0 0.00 0.00 0.00 78 1014.0
20260903041555 70 0 0.0 3.0 0.00 0.00 0.00 79 1014.1
20260903040107 70 146 0.0 3.0 0.00 0.00 0.00 81 1014.1
20260903034559 70 166 0.0 3.0 0.00 0.00 0.00 83 1014.0
20260903033057 71 119 1.0 4.0 0.00 0.00 0.00 81 1013.8
20260903031604 71 161 0.0 3.0 0.00 0.00 0.00 79 1013.7
20260903030103 71 171 0.0 3.0 0.00 0.00 0.00 77 1013.7
20260903024608 71 152 0.0 4.0 0.00 0.00 0.00 76 1013.7
20260903023055 71 114 1.0 7.0 0.00 0.00 0.00 75 1013.7
20260903021604 71 157 0.0 7.0 0.00 0.00 0.00 74 1013.7
20260903020105 72 111 0.0 4.0 0.00 0.00 0.00 73 1013.7
20260903014604 72 92 1.0 7.0 0.00 0.00 0.00 75 1013.8
20260903013109 73 117 3.0 8.0 0.00 0.00 0.00 73 1013.8
20260903011602 74 0 2.0 7.0 0.00 0.00 0.00 73 1013.9
20260903010106 74 148 3.0 11.0 0.00 0.00 0.00 73 1013.9
20260903004606 74 124 2.0 14.0 0.00 0.00 0.00 74 1013.9
20260903003100 74 0 3.0 10.0 0.00 0.00 0.00 73 1013.8
20260903001606 74 142 2.0 10.0 0.00 0.00 0.00 75 1013.9
20260902234616 75 135 3.0 13.0 0.00 0.00 0.00 72 1014.1
20260902233104 76 148 3.0 12.0 0.00 0.00 0.00 71 1014.1
20260902231610 77 126 3.0 12.0 0.00 0.00 0.00 69 1014.2
20260902230107 77 105 1.0 11.0 0.00 0.00 0.00 67 1014.3
20260902224612 78 119 1.0 10.0 0.00 0.00 0.00 66 1014.3
20260902223107 78 98 1.0 7.0 0.00 0.00 0.00 63 1014.5
20260902221608 78 105 1.0 8.0 0.00 0.00 0.00 64 1014.6
20260902220107 78 26 1.0 8.0 0.00 0.00 0.00 61 1014.9
20260902214604 79 125 1.0 9.0 0.00 0.00 0.00 55 1015.1
20260902213118 78 161 1.0 8.0 0.00 0.00 0.00 58 1015.1
20260902211606 77 115 2.0 12.0 0.00 0.00 0.00 59 1015.2
20260902210129 77 192 2.0 8.0 0.00 0.00 0.00 66 1015.4
20260902204602 77 106 2.0 11.0 0.00 0.00 0.00 64 1015.4
20260902203107 77 124 1.0 9.0 0.00 0.00 0.00 67 1015.6
20260902201604 77 96 2.0 8.0 0.00 0.00 0.00 66 1015.5
20260902200135 77 140 2.0 7.0 0.00 0.00 0.00 66 1015.8
20260902194601 77 125 1.0 6.0 0.00 0.00 0.00 67 1015.8
20260902193057 76 102 1.0 6.0 0.00 0.00 0.00 68 1015.9
20260902191614 76 146 2.0 7.0 0.00 0.00 0.00 69 1016.1
20260902190115 77 136 2.0 7.0 0.00 0.00 0.00 68 1016.1
20260902184602 76 135 2.0 7.0 0.00 0.00 0.00 68 1016.2
20260902183108 76 0 1.0 8.0 0.00 0.00 0.00 68 1016.2
20260902181554 77 126 1.0 7.0 0.00 0.00 0.00 68 1016.1
20260902180126 76 132 1.0 4.0 0.00 0.00 0.00 69 1016.1
20260902174629 75 115 2.0 7.0 0.00 0.00 0.00 71 1016.1
20260902173106 75 97 1.0 4.0 0.00 0.00 0.00 70 1016.2
20260902171608 74 5 1.0 6.0 0.00 0.00 0.00 71 1016.1
20260902170103 72 292 1.0 6.0 0.00 0.00 0.00 73 1016.0
20260902164555 73 318 2.0 7.0 0.00 0.00 0.00 73 1016.1
20260902163104 72 12 1.0 5.0 0.00 0.00 0.00 76 1015.9
20260902161605 71 19 1.0 4.0 0.00 0.00 0.00 76 1016.0
20260902160100 71 5 1.0 5.0 0.00 0.00 0.00 77 1016.1
20260902154607 71 263 1.0 4.0 0.00 0.00 0.00 76 1016.0
20260902153100 70 0 0.0 2.0 0.00 0.00 0.00 77 1016.0
20260902151559 70 163 0.0 4.0 0.00 0.00 0.00 78 1016.0
20260902150108 69 159 0.0 2.0 0.00 0.00 0.00 80 1016.0
20260902144603 68 0 0.0 2.0 0.00 0.00 0.00 81 1015.8
20260902143105 67 0 0.0 1.0 0.00 0.00 0.00 83 1015.9
20260902141602 65 0 0.0 2.0 0.00 0.00 0.00 86 1015.7
20260902140104 64 158 0.0 1.0 0.00 0.00 0.00 88 1015.6
20260902134554 63 0 0.0 0.0 0.00 0.00 0.00 89 1015.4
20260902133057 62 0 0.0 0.0 0.00 0.00 0.00 88 1015.2
20260902131608 62 0 0.0 0.0 0.00 0.00 0.00 88 1015.2
20260902130057 63 0 0.0 1.0 0.00 0.00 0.00 87 1015.1
20260902124603 63 0 0.0 2.0 0.00 0.00 0.00 87 1015.1
20260902123059 63 0 0.0 1.0 0.00 0.00 0.00 87 1015.2
20260902121604 63 0 0.0 1.0 0.00 0.00 0.00 87 1015.3
20260902120108 63 0 0.0 2.0 0.00 0.00 0.00 87 1015.3
20260902114604 63 0 0.0 1.0 0.00 0.00 0.00 87 1015.4
20260902113113 63 0 0.0 0.0 0.00 0.00 0.00 87 1015.3
20260902111602 63 0 0.0 0.0 0.00 0.00 0.00 87 1015.4
20260902110057 63 0 0.0 1.0 0.00 0.00 0.00 87 1015.5
20260902104601 63 0 0.0 1.0 0.00 0.00 0.00 87 1015.4
20260902103101 64 0 0.0 0.0 0.00 0.00 0.00 86 1015.3
20260902101607 64 0 0.0 0.0 0.00 0.00 0.00 86 1015.4
20260902100101 64 0 0.0 0.0 0.00 0.00 0.00 86 1015.4
20260902094602 64 0 0.0 0.0 0.00 0.00 0.00 86 1015.5